User: anonymous   Login
Location: Lake Runnemede Observatory
(43.4843°N, 72.3851°W)
Time: 05:09:49
(UTC-05:00)
Language:

SPOT 5 - Orbit

View from above orbital plane
View from above orbital plane
View from above satellite
View from above satellite

Ground track
Ground track

The orbit data is extracted from the following two-line orbital elements,

1 27421U 02021A   16044.88662745  .00000251  00000-0  67189-4 0  9995
2 27421  98.4751  99.7493 0136069  25.5189 335.2636 14.51761437714670
Epoch (UTC): 13 February 2016 21:16:44
Eccentricity: 0.0136069
inclination: 98.4751°
perigee height: 623 km
apogee height: 816 km
right ascension of ascending node: 99.7493°
argument of perigee: 25.5189°
revolutions per day: 14.51761437
mean anomaly at epoch: 335.2636°
orbit number at epoch: 71467

The dashed part of the orbit path shows where the satellite is in the earth's shadow,  

DLR